Waarnemingen

Advertentie
Mijn weer
Junsele, Zweden (2244): temperatuur & dauwpunt: 13.11.2017 18:00:00 - 19.11.2017 18:00:00 (CET)Junsele, Zweden (2244): windsnelheid & windstoten: 13.11.2017 18:00:00 - 19.11.2017 18:00:00 (CET)Junsele, Zweden (2244): windrichting: 13.11.2017 18:00:00 - 19.11.2017 18:00:00 (CET)Junsele, Zweden (2244): luchtdruk: 13.11.2017 18:00:00 - 19.11.2017 18:00:00 (CET)Junsele, Zweden (2244): zicht: 13.11.2017 18:00:00 - 19.11.2017 18:00:00 (CET)Junsele, Zweden (2244): neerslag: 13.11.2017 18:00:00 - 19.11.2017 18:00:00 (CET)
Datum & Tijd tt [°C] td [°C] ff [km/u] ff [kn] fx [km/u] fx [kn] dd ppp [hPa] vv [km] rr [mm]
19.11.2017 18:00:00 -5,0 -6,4 6 3 18 10 N 1006,1 28 0,0
19.11.2017 17:00:00 -4,6 -5,8 5 3 19 11 N 1005,7 24 0,0
19.11.2017 16:00:00 -4,3 -5,7 6 3 18 10 N 1005,3 25 0,1
19.11.2017 15:00:00 -4,3 -5,7 7 4 21 11 N 1005,0 26 0,0
19.11.2017 14:00:00 -4,2 -4,9 5 3 16 9 NW 1004,6 5 0,5
19.11.2017 13:00:00 -4,1 -4,8 6 3 21 11 NNW 1004,3 1,3 0,6
19.11.2017 12:00:00 -4,1 -5,3 6 3 21 12 NNW 1003,9 28 0,0
19.11.2017 11:00:00 -4,3 -5,4 5 3 18 10 NNW 1003,6 17 0,0
19.11.2017 10:00:00 -4,6 -5,7 5 3 18 10 N 1003,1 16 0,0
19.11.2017 09:00:00 -4,9 -5,9 7 4 24 13 N 1002,3 15 0,0
19.11.2017 08:00:00 -5,0 -6,1 7 4 26 14 N 1001,4 35 0,0
19.11.2017 07:00:00 -5,2 -6,3 5 3 18 10 N 1001,0 37 0,0
19.11.2017 06:00:00 -5,1 -6,1 4 2 15 8 NNW 1001,0 26 0,0
19.11.2017 05:00:00 -5,3 -6,3 4 2 16 9 NNW 1000,5 24 0,0
19.11.2017 04:00:00 -5,5 -6,5 5 3 21 11 N 1000,4 30 0,0
19.11.2017 03:00:00 -5,8 -6,7 5 3 18 10 NNW 1000,2 36 0,0
19.11.2017 02:00:00 -6,3 -7,4 4 2 16 9 NNW 1000,1 23 0,0
19.11.2017 01:00:00 -6,8 -8,0 4 2 14 8 NNW 1000,2 31 0,0
19.11.2017 00:00:00 -6,9 -8,1 5 3 15 8 N 1000,0 34 0,0
18.11.2017 23:00:00 -6,9 -7,8 5 3 13 7 N 999,5 - 0,0
18.11.2017 22:00:00 -6,9 -8,0 6 3 19 11 NNO 999,3 15 0,0
18.11.2017 21:00:00 -6,9 -7,8 9 5 29 16 NNO 998,8 34 0,0
18.11.2017 20:00:00 -6,8 -7,7 10 5 27 15 NO 998,3 43 0,0
18.11.2017 19:00:00 -6,8 -7,5 10 5 25 13 NNO 997,6 29 0,0
18.11.2017 18:00:00 -7,0 -7,8 5 3 14 8 NNO 997,3 44 0,0
18.11.2017 17:00:00 -7,1 -7,5 3 2 13 7 N 997,3 10 0,0
18.11.2017 16:00:00 -9,9 -10,8 2 1 7 4 W 997,3 34 0,0
18.11.2017 15:00:00 -10,7 -11,9 3 2 13 7 Z 996,7 40 0,0
18.11.2017 14:00:00 -12,5 -13,8 3 2 7 4 W 996,2 44 0,0
18.11.2017 13:00:00 -11,7 -13,3 2 1 16 9 ZO 995,9 50 0,0
18.11.2017 12:00:00 -12,9 -13,8 6 3 15 8 NNO 995,8 46 0,0
18.11.2017 11:00:00 -14,2 -15,6 3 1 4 2 NO 996,1 39 0,0
18.11.2017 10:00:00 -14,6 -16,0 2 1 6 3 OZO 996,2 44 0,0
18.11.2017 09:00:00 -15,1 -16,6 4 2 9 5 NO 996,0 26 0,0
18.11.2017 08:00:00 -14,8 -16,3 1 1 4 2 OZO 996,0 50 0,0
18.11.2017 07:00:00 -14,3 -15,7 1 1 5 3 ZO 995,5 50 0,0
18.11.2017 06:00:00 -13,9 -15,2 3 2 6 3 OZO 995,7 46 0,0
18.11.2017 05:00:00 -12,7 -13,7 2 1 6 3 O 995,6 50 0,0
18.11.2017 04:00:00 -12,3 -13,5 2 1 4 2 NO 996,0 50 0,0
18.11.2017 03:00:00 -11,1 -11,9 2 1 4 2 ZW 996,1 40 0,0
18.11.2017 02:00:00 -10,1 -11,3 1 0 7 4 Z 996,1 46 0,0
18.11.2017 01:00:00 -9,9 -11,1 2 1 5 3 NO 996,2 44 0,0
18.11.2017 00:00:00 -7,9 -8,4 1 1 4 2 NNW 996,1 39 0,0
17.11.2017 23:00:00 -6,5 -7,0 2 1 6 3 N 996,0 33 0,0
17.11.2017 22:00:00 -4,4 -4,5 3 2 9 5 W 995,7 18 0,0
17.11.2017 21:00:00 -4,7 -5,2 3 2 5 3 ZZW 995,5 34 0,0
17.11.2017 20:00:00 -4,3 -4,4 2 1 5 3 ZO 995,5 35 0,0
17.11.2017 19:00:00 -3,9 -4,2 2 1 6 4 WZW 995,4 29 0,0
17.11.2017 18:00:00 -3,8 -3,8 3 2 8 5 W 995,6 21 0,0
17.11.2017 17:00:00 -3,9 -3,9 2 1 7 4 W 995,9 6 0,0
17.11.2017 16:00:00 -3,6 -3,7 3 2 11 6 WZW 995,9 12 0,0
17.11.2017 15:00:00 -1,9 -2,2 5 3 13 7 WZW 995,4 9 0,0
17.11.2017 14:00:00 -1,0 -1,7 6 3 16 9 W 995,5 19 0,0
17.11.2017 13:00:00 -0,7 -1,1 5 3 17 9 WZW 995,2 19 0,0
17.11.2017 12:00:00 -0,4 -0,7 5 3 16 9 WZW 995,5 19 0,0
17.11.2017 11:00:00 -0,2 -0,3 8 4 19 10 W 995,4 17 0,0
17.11.2017 10:00:00 -0,2 -0,2 8 5 17 9 W 995,0 23 0,0
17.11.2017 09:00:00 -0,6 -0,6 3 2 11 6 W 994,7 19 0,0
17.11.2017 08:00:00 0,1 0,1 5 3 14 8 W 994,7 3,0 0,6
17.11.2017 07:00:00 0,1 0,1 4 2 10 6 W 994,6 1,5 0,9
17.11.2017 06:00:00 0,0 0,0 5 3 18 10 W 994,5 1,4 1,0
17.11.2017 05:00:00 0,0 0,0 4 2 9 5 WZW 994,3 2,4 0,6
17.11.2017 04:00:00 0,0 0,0 3 1 7 4 NW 994,8 1,7 1,0
17.11.2017 03:00:00 0,1 0,1 3 1 6 3 ZZO 995,5 1,9 0,8
17.11.2017 02:00:00 0,1 0,1 2 1 12 6 OZO 996,1 2,1 0,7
17.11.2017 01:00:00 0,1 0,1 5 3 12 7 ZO 996,7 2,0 0,7
17.11.2017 00:00:00 -0,1 -0,1 5 3 10 6 ZO 997,8 3,5 0,2
16.11.2017 23:00:00 -0,3 -0,3 5 3 13 7 ZO 999,0 3,6 0,5
16.11.2017 22:00:00 -0,6 -0,6 5 3 13 7 ZO 1000,2 2,7 0,6
16.11.2017 21:00:00 -0,7 -0,7 8 4 16 9 ZZO 1001,6 1,2 0,6
16.11.2017 20:00:00 -1,2 -1,5 7 4 20 11 ZZO 1002,5 2,0 0,1
16.11.2017 19:00:00 -1,5 -2,2 6 4 14 8 ZO 1003,6 47 0,0
16.11.2017 18:00:00 -1,9 -2,2 7 4 17 9 ZO 1004,5 43 0,0
16.11.2017 17:00:00 -2,5 -2,6 7 4 14 8 OZO 1006,2 33 0,0
16.11.2017 16:00:00 -3,2 -3,3 7 4 13 7 OZO 1007,8 30 0,0
16.11.2017 15:00:00 -3,2 -3,2 3 2 8 5 O 1009,4 30 0,0
16.11.2017 14:00:00 -2,9 -2,9 5 3 9 5 ZO 1010,5 26 0,0
16.11.2017 13:00:00 -2,5 -2,5 3 2 9 5 O 1011,0 23 0,0
16.11.2017 12:00:00 -2,3 -2,3 3 1 6 3 OZO 1011,7 24 0,0
16.11.2017 11:00:00 -3,1 -3,2 3 2 15 8 WZW 1012,0 16 0,0
16.11.2017 10:00:00 -3,2 -3,2 6 3 11 6 WZW 1012,5 30 0,0
16.11.2017 09:00:00 -4,6 -4,7 2 1 5 3 O 1013,0 27 0,0
16.11.2017 08:00:00 -5,1 -5,9 3 2 12 6 ZW 1012,5 33 0,0
16.11.2017 07:00:00 -3,7 -3,8 7 4 13 7 W 1011,9 50 0,0
16.11.2017 06:00:00 -2,2 -2,2 6 3 15 8 WZW 1011,5 50 0,0
16.11.2017 05:00:00 -2,3 -2,3 8 5 16 9 W 1010,8 50 0,0
16.11.2017 04:00:00 -1,5 -1,5 6 3 17 9 W 1010,1 50 0,0
16.11.2017 03:00:00 -0,6 -0,6 9 5 16 9 W 1009,2 50 0,0
16.11.2017 02:00:00 -1,5 -1,5 5 3 11 6 W 1008,3 31 0,0
16.11.2017 01:00:00 -1,2 -1,2 6 3 17 9 W 1007,1 50 0,0
16.11.2017 00:00:00 -1,1 -1,1 8 4 19 10 W 1006,1 22 0,0
15.11.2017 23:00:00 -3,3 -3,3 5 3 11 6 W 1005,9 50 0,0
15.11.2017 22:00:00 -6,0 -6,4 4 2 10 5 WZW 1005,7 50 0,0
15.11.2017 21:00:00 -8,6 -9,4 1 1 6 4 ZW 1005,7 50 0,0
15.11.2017 20:00:00 -10,4 -11,2 3 1 4 2 O 1005,8 50 0,0
15.11.2017 19:00:00 -11,0 -12,2 1 1 6 3 WNW 1006,0 50 0,0
15.11.2017 18:00:00 -9,6 -10,4 1 1 8 4 ZO 1005,4 50 0,0
15.11.2017 17:00:00 -10,2 -11,2 2 1 8 5 ZO 1005,4 50 0,0
15.11.2017 16:00:00 -9,7 -10,6 3 2 5 3 ONO 1005,2 49 0,0
15.11.2017 15:00:00 -8,0 -8,7 1 1 3 2 Z 1004,8 40 0,0
15.11.2017 14:00:00 -6,9 -7,4 1 1 3 2 Z 1004,6 50 0,0
15.11.2017 13:00:00 -6,8 -7,3 2 1 3 2 OZO 1004,1 50 0,1
15.11.2017 12:00:00 -7,1 -7,6 2 1 4 2 NNO 1003,8 44 0,0
15.11.2017 11:00:00 -7,8 -8,5 2 1 6 4 OZO 1004,0 6 0,4
15.11.2017 10:00:00 -8,5 -9,3 3 2 6 3 OZO 1004,1 2,0 0,3
15.11.2017 09:00:00 -9,3 -10,1 2 1 6 3 ZZO 1004,1 50 0,0
15.11.2017 08:00:00 -10,0 -10,9 3 1 8 4 ZO 1004,3 12 0,0
15.11.2017 07:00:00 -10,2 -11,1 2 1 5 3 ONO 1004,1 33 0,0
15.11.2017 06:00:00 -9,7 -10,5 4 2 8 5 Z 1004,4 2,3 0,0
15.11.2017 05:00:00 -9,5 -10,3 3 2 8 4 ONO 1004,6 1,2 0,0
15.11.2017 04:00:00 -9,9 -10,8 3 2 6 4 ZO 1005,0 28 0,0
15.11.2017 03:00:00 -9,9 -10,8 4 2 9 5 ZZO 1005,5 4,7 0,0
15.11.2017 02:00:00 -9,5 -10,3 2 1 8 4 ZO 1005,1 2,3 0,0
15.11.2017 01:00:00 -9,4 -10,2 1 1 6 3 ZZO 1005,1 1,1 0,0
15.11.2017 00:00:00 -9,6 -10,2 3 2 6 3 ZO 1005,1 0,2 0,0
14.11.2017 23:00:00 -9,6 -10,2 2 1 5 3 ONO 1004,9 0,9 0,0
14.11.2017 22:00:00 -10,6 -11,1 3 1 4 2 ZZO 1004,9 0,6 0,0
14.11.2017 21:00:00 -13,1 -14,4 2 1 5 3 NNO 1004,8 47 0,0
14.11.2017 20:00:00 -13,2 -14,8 3 1 4 2 OZO 1004,3 49 0,0
14.11.2017 19:00:00 -11,5 -12,5 2 1 4 2 O 1004,1 50 0,0
14.11.2017 18:00:00 -10,8 -12,0 1 1 4 2 ZW 1004,1 50 0,0
14.11.2017 17:00:00 -9,5 -10,6 1 1 5 3 OZO 1004,1 50 0,0
14.11.2017 16:00:00 -8,1 -8,6 2 1 4 2 OZO 1004,1 50 0,0
14.11.2017 15:00:00 -6,4 -6,8 1 0 3 1 ZO 1003,9 45 0,0
14.11.2017 14:00:00 -4,3 -4,8 2 1 5 3 ZO 1003,9 45 0,0
14.11.2017 13:00:00 -5,7 -6,2 3 1 4 2 ZO 1004,2 48 0,0
14.11.2017 12:00:00 -6,3 -7,0 3 1 4 2 O 1004,2 50 0,0
14.11.2017 11:00:00 -5,8 -6,2 2 1 8 4 O 1004,3 45 0,0
14.11.2017 10:00:00 -7,3 -8,1 2 1 5 3 O 1004,7 42 0,0
14.11.2017 09:00:00 -7,4 -7,5 2 1 5 3 ONO 1004,9 49 0,0
14.11.2017 08:00:00 -7,5 -7,9 2 1 5 3 Z 1005,0 50 0,0
14.11.2017 07:00:00 -6,5 -6,9 2 1 5 3 WZW 1004,9 44 0,0
14.11.2017 06:00:00 -6,7 -6,8 1 1 5 3 Z 1005,2 50 0,0
14.11.2017 05:00:00 -7,5 -8,4 3 2 9 5 ZW 1005,6 50 0,0
14.11.2017 04:00:00 -5,7 -5,7 2 1 7 4 OZO 1005,6 50 0,0
14.11.2017 03:00:00 -5,8 -6,1 1 1 8 4 Z 1006,0 50 0,0
14.11.2017 02:00:00 -4,9 -5,2 6 3 12 7 W 1006,1 50 0,0
14.11.2017 01:00:00 -4,1 -4,8 6 4 15 8 W 1006,0 50 0,0
14.11.2017 00:00:00 -4,1 -4,4 6 4 12 7 W 1005,9 50 0,0
13.11.2017 23:00:00 -3,5 -3,8 4 2 15 8 W 1006,1 50 0,0
13.11.2017 22:00:00 -2,8 -3,2 8 4 15 8 W 1005,9 50 0,0
13.11.2017 21:00:00 -1,6 -2,2 9 5 18 10 W 1006,0 50 0,0
13.11.2017 20:00:00 -0,4 -1,0 6 3 11 6 W 1005,9 50 0,0
13.11.2017 19:00:00 -1,1 -1,4 3 2 12 6 W 1005,8 50 0,0
13.11.2017 18:00:00 0,2 -0,4 3 2 15 8 WZW 1005,4 50 0,0

tt = temperatuur
td = dauwpunt
ff = windsnelheid
fx = windstoten
dd = windrichting
ppp = luchtdruk
vv = zicht
rr = neerslag

Weerstations in de omgeving